﻿測定場所 (Monitoring sites),日付 (Measurement date),時間 (Measurement time),線量率 最大値 (max) μGy/h,線量率 最小値 (min) μGy/h,線量率 平均値 (average) μGy/h,
江戸川 (Edogawa),2012-06-24,23:01～24:00,0.124,0.111,0.117,
江戸川 (Edogawa),2012-06-24,22:01～23:00,0.126,0.111,0.117,
江戸川 (Edogawa),2012-06-24,21:01～22:00,0.125,0.113,0.118,
江戸川 (Edogawa),2012-06-24,20:01～21:00,0.125,0.111,0.118,
江戸川 (Edogawa),2012-06-24,19:01～20:00,0.123,0.111,0.117,
江戸川 (Edogawa),2012-06-24,18:01～19:00,0.126,0.112,0.118,
江戸川 (Edogawa),2012-06-24,17:01～18:00,0.122,0.110,0.117,
江戸川 (Edogawa),2012-06-24,16:01～17:00,0.125,0.112,0.117,
江戸川 (Edogawa),2012-06-24,15:01～16:00,0.123,0.111,0.117,
江戸川 (Edogawa),2012-06-24,14:01～15:00,0.122,0.109,0.117,
江戸川 (Edogawa),2012-06-24,13:01～14:00,0.122,0.111,0.118,
江戸川 (Edogawa),2012-06-24,12:01～13:00,0.124,0.112,0.117,
江戸川 (Edogawa),2012-06-24,11:01～12:00,0.125,0.111,0.117,
江戸川 (Edogawa),2012-06-24,10:01～11:00,0.123,0.109,0.116,
江戸川 (Edogawa),2012-06-24,09:01～10:00,0.124,0.111,0.117,
江戸川 (Edogawa),2012-06-24,08:01～09:00,0.124,0.110,0.117,
江戸川 (Edogawa),2012-06-24,07:01～08:00,0.122,0.111,0.117,
江戸川 (Edogawa),2012-06-24,06:01～07:00,0.123,0.110,0.117,
江戸川 (Edogawa),2012-06-24,05:01～06:00,0.125,0.110,0.117,
江戸川 (Edogawa),2012-06-24,04:01～05:00,0.125,0.112,0.118,
江戸川 (Edogawa),2012-06-24,03:01～04:00,0.124,0.110,0.117,
江戸川 (Edogawa),2012-06-24,02:01～03:00,0.123,0.107,0.117,
江戸川 (Edogawa),2012-06-24,01:01～02:00,0.126,0.111,0.117,
江戸川 (Edogawa),2012-06-24,00:01～01:00,0.124,0.110,0.117,
江戸川 (Edogawa),2012-06-23,23:01～24:00,0.122,0.111,0.117,
江戸川 (Edogawa),2012-06-23,22:01～23:00,0.124,0.114,0.118,
江戸川 (Edogawa),2012-06-23,21:01～22:00,0.125,0.112,0.118,
江戸川 (Edogawa),2012-06-23,20:01～21:00,0.126,0.111,0.117,
江戸川 (Edogawa),2012-06-23,19:01～20:00,0.124,0.110,0.117,
江戸川 (Edogawa),2012-06-23,18:01～19:00,0.125,0.111,0.117,
江戸川 (Edogawa),2012-06-23,17:01～18:00,0.123,0.110,0.116,
江戸川 (Edogawa),2012-06-23,16:01～17:00,0.124,0.109,0.116,
江戸川 (Edogawa),2012-06-23,15:01～16:00,0.124,0.108,0.117,
江戸川 (Edogawa),2012-06-23,14:01～15:00,0.124,0.112,0.116,
江戸川 (Edogawa),2012-06-23,13:01～14:00,0.126,0.109,0.116,
江戸川 (Edogawa),2012-06-23,12:01～13:00,0.125,0.109,0.117,
江戸川 (Edogawa),2012-06-23,11:01～12:00,0.123,0.111,0.117,
江戸川 (Edogawa),2012-06-23,10:01～11:00,0.122,0.107,0.116,
江戸川 (Edogawa),2012-06-23,09:01～10:00,0.123,0.109,0.117,
江戸川 (Edogawa),2012-06-23,08:01～09:00,0.121,0.112,0.116,
江戸川 (Edogawa),2012-06-23,07:01～08:00,0.123,0.109,0.116,
江戸川 (Edogawa),2012-06-23,06:01～07:00,0.123,0.108,0.117,
江戸川 (Edogawa),2012-06-23,05:01～06:00,0.122,0.111,0.116,
江戸川 (Edogawa),2012-06-23,04:01～05:00,0.123,0.108,0.116,
江戸川 (Edogawa),2012-06-23,03:01～04:00,0.122,0.111,0.117,
江戸川 (Edogawa),2012-06-23,02:01～03:00,0.123,0.110,0.116,
江戸川 (Edogawa),2012-06-23,01:01～02:00,0.122,0.109,0.116,
江戸川 (Edogawa),2012-06-23,00:01～01:00,0.123,0.111,0.116,
江戸川 (Edogawa),2012-06-22,23:01～24:00,0.122,0.110,0.116,
江戸川 (Edogawa),2012-06-22,22:01～23:00,0.123,0.108,0.116,
江戸川 (Edogawa),2012-06-22,21:01～22:00,0.123,0.110,0.116,
江戸川 (Edogawa),2012-06-22,20:01～21:00,0.123,0.110,0.116,
江戸川 (Edogawa),2012-06-22,19:01～20:00,0.121,0.110,0.116,
江戸川 (Edogawa),2012-06-22,18:01～19:00,0.122,0.109,0.116,
江戸川 (Edogawa),2012-06-22,17:01～18:00,0.120,0.110,0.115,
江戸川 (Edogawa),2012-06-22,16:01～17:00,0.122,0.111,0.116,
江戸川 (Edogawa),2012-06-22,15:01～16:00,0.124,0.107,0.115,
江戸川 (Edogawa),2012-06-22,14:01～15:00,0.121,0.109,0.116,
江戸川 (Edogawa),2012-06-22,13:01～14:00,0.122,0.110,0.116,
江戸川 (Edogawa),2012-06-22,12:01～13:00,0.124,0.111,0.118,
江戸川 (Edogawa),2012-06-22,11:01～12:00,0.126,0.113,0.120,
江戸川 (Edogawa),2012-06-22,10:01～11:00,0.125,0.113,0.119,
江戸川 (Edogawa),2012-06-22,09:01～10:00,0.123,0.108,0.115,
江戸川 (Edogawa),2012-06-22,08:01～09:00,0.123,0.108,0.115,
江戸川 (Edogawa),2012-06-22,07:01～08:00,0.120,0.106,0.112,
江戸川 (Edogawa),2012-06-22,06:01～07:00,0.114,0.0894,0.0995,
江戸川 (Edogawa),2012-06-22,05:01～06:00,0.119,0.104,0.110,
江戸川 (Edogawa),2012-06-22,04:01～05:00,0.120,0.109,0.116,
江戸川 (Edogawa),2012-06-22,03:01～04:00,0.124,0.109,0.117,
江戸川 (Edogawa),2012-06-22,02:01～03:00,0.124,0.111,0.118,
江戸川 (Edogawa),2012-06-22,01:01～02:00,0.125,0.110,0.117,
江戸川 (Edogawa),2012-06-22,00:01～01:00,0.127,0.110,0.118,
江戸川 (Edogawa),2012-06-21,23:01～24:00,0.123,0.112,0.117,
江戸川 (Edogawa),2012-06-21,22:01～23:00,0.125,0.108,0.117,
江戸川 (Edogawa),2012-06-21,21:01～22:00,0.124,0.112,0.118,
江戸川 (Edogawa),2012-06-21,20:01～21:00,0.126,0.112,0.118,
江戸川 (Edogawa),2012-06-21,19:01～20:00,0.125,0.113,0.118,
江戸川 (Edogawa),2012-06-21,18:01～19:00,0.125,0.111,0.117,
江戸川 (Edogawa),2012-06-21,17:01～18:00,0.125,0.112,0.119,
江戸川 (Edogawa),2012-06-21,16:01～17:00,0.124,0.110,0.118,
江戸川 (Edogawa),2012-06-21,15:01～16:00,0.126,0.110,0.119,
江戸川 (Edogawa),2012-06-21,14:01～15:00,0.124,0.109,0.118,
江戸川 (Edogawa),2012-06-21,13:01～14:00,0.127,0.108,0.118,
江戸川 (Edogawa),2012-06-21,12:01～13:00,0.126,0.111,0.118,
江戸川 (Edogawa),2012-06-21,11:01～12:00,0.128,0.112,0.118,
江戸川 (Edogawa),2012-06-21,10:01～11:00,0.125,0.111,0.117,
江戸川 (Edogawa),2012-06-21,09:01～10:00,0.123,0.111,0.117,
江戸川 (Edogawa),2012-06-21,08:01～09:00,0.121,0.112,0.117,
江戸川 (Edogawa),2012-06-20,18:01～19:00,0.120,0.114,0.118,
江戸川 (Edogawa),2012-06-20,17:01～18:00,0.126,0.113,0.118,
江戸川 (Edogawa),2012-06-20,16:01～17:00,0.125,0.111,0.117,
江戸川 (Edogawa),2012-06-20,15:01～16:00,0.125,0.108,0.116,
江戸川 (Edogawa),2012-06-20,14:01～15:00,0.125,0.109,0.117,
江戸川 (Edogawa),2012-06-20,13:01～14:00,0.125,0.107,0.117,
江戸川 (Edogawa),2012-06-20,12:01～13:00,0.124,0.109,0.118,
江戸川 (Edogawa),2012-06-20,11:01～12:00,0.125,0.109,0.117,
江戸川 (Edogawa),2012-06-20,10:01～11:00,0.126,0.112,0.117,
江戸川 (Edogawa),2012-06-20,09:01～10:00,0.124,0.111,0.117,
江戸川 (Edogawa),2012-06-20,08:01～09:00,0.124,0.110,0.117,
江戸川 (Edogawa),2012-06-20,07:01～08:00,0.123,0.111,0.117,
江戸川 (Edogawa),2012-06-20,06:01～07:00,0.124,0.111,0.117,
江戸川 (Edogawa),2012-06-20,05:01～06:00,0.125,0.108,0.117,
江戸川 (Edogawa),2012-06-20,04:01～05:00,0.124,0.109,0.116,
江戸川 (Edogawa),2012-06-20,03:01～04:00,0.123,0.110,0.116,
江戸川 (Edogawa),2012-06-20,02:01～03:00,0.125,0.110,0.117,
江戸川 (Edogawa),2012-06-20,01:01～02:00,0.123,0.108,0.117,
江戸川 (Edogawa),2012-06-20,00:01～01:00,0.126,0.111,0.119,
江戸川 (Edogawa),2012-06-19,23:01～24:00,0.124,0.100,0.114,
江戸川 (Edogawa),2012-06-19,22:01～23:00,0.110,0.0957,0.105,
江戸川 (Edogawa),2012-06-19,21:01～22:00,0.114,0.100,0.107,
江戸川 (Edogawa),2012-06-19,20:01～21:00,0.119,0.0977,0.105,
江戸川 (Edogawa),2012-06-19,19:01～20:00,0.123,0.102,0.112,
江戸川 (Edogawa),2012-06-19,18:01～19:00,0.122,0.109,0.116,
江戸川 (Edogawa),2012-06-19,17:01～18:00,0.127,0.113,0.118,
江戸川 (Edogawa),2012-06-19,16:01～17:00,0.123,0.110,0.117,
江戸川 (Edogawa),2012-06-19,15:01～16:00,0.124,0.111,0.118,
江戸川 (Edogawa),2012-06-19,14:01～15:00,0.127,0.112,0.118,
江戸川 (Edogawa),2012-06-19,13:01～14:00,0.127,0.113,0.119,
江戸川 (Edogawa),2012-06-19,12:01～13:00,0.126,0.113,0.119,
江戸川 (Edogawa),2012-06-19,11:01～12:00,0.122,0.112,0.118,
江戸川 (Edogawa),2012-06-19,10:01～11:00,0.125,0.110,0.117,
江戸川 (Edogawa),2012-06-19,09:01～10:00,0.125,0.112,0.118,
江戸川 (Edogawa),2012-06-19,08:01～09:00,0.127,0.111,0.119,
江戸川 (Edogawa),2012-06-19,07:01～08:00,0.126,0.110,0.118,
江戸川 (Edogawa),2012-06-19,06:01～07:00,0.124,0.111,0.117,
江戸川 (Edogawa),2012-06-19,05:01～06:00,0.125,0.110,0.117,
江戸川 (Edogawa),2012-06-19,04:01～05:00,0.124,0.112,0.118,
江戸川 (Edogawa),2012-06-19,03:01～04:00,0.126,0.112,0.118,
江戸川 (Edogawa),2012-06-19,02:01～03:00,0.124,0.109,0.118,
江戸川 (Edogawa),2012-06-19,01:01～02:00,0.123,0.111,0.118,
江戸川 (Edogawa),2012-06-19,00:01～01:00,0.125,0.109,0.118,
江戸川 (Edogawa),2012-06-18,23:01～24:00,0.126,0.111,0.117,
江戸川 (Edogawa),2012-06-18,22:01～23:00,0.125,0.108,0.117,
江戸川 (Edogawa),2012-06-18,21:01～22:00,0.124,0.111,0.118,
江戸川 (Edogawa),2012-06-18,20:01～21:00,0.123,0.112,0.118,
江戸川 (Edogawa),2012-06-18,19:01～20:00,0.126,0.110,0.118,
江戸川 (Edogawa),2012-06-18,18:01～19:00,0.128,0.112,0.118,
江戸川 (Edogawa),2012-06-18,17:01～18:00,0.127,0.111,0.117,
江戸川 (Edogawa),2012-06-18,16:01～17:00,0.127,0.111,0.118,
江戸川 (Edogawa),2012-06-18,15:01～16:00,0.125,0.111,0.117,
江戸川 (Edogawa),2012-06-18,14:01～15:00,0.123,0.109,0.116,
江戸川 (Edogawa),2012-06-18,13:01～14:00,0.124,0.109,0.117,
江戸川 (Edogawa),2012-06-18,12:01～13:00,0.124,0.111,0.118,
江戸川 (Edogawa),2012-06-18,11:01～12:00,0.124,0.112,0.117,
江戸川 (Edogawa),2012-06-18,10:01～11:00,0.123,0.110,0.117,
江戸川 (Edogawa),2012-06-18,09:01～10:00,0.123,0.110,0.117,
江戸川 (Edogawa),2012-06-18,08:01～09:00,0.123,0.110,0.117,
江戸川 (Edogawa),2012-06-18,07:01～08:00,0.123,0.110,0.118,
江戸川 (Edogawa),2012-06-18,06:01～07:00,0.125,0.108,0.117,
江戸川 (Edogawa),2012-06-18,05:01～06:00,0.122,0.108,0.117,
江戸川 (Edogawa),2012-06-18,04:01～05:00,0.122,0.111,0.118,
江戸川 (Edogawa),2012-06-18,03:01～04:00,0.124,0.111,0.117,
江戸川 (Edogawa),2012-06-18,02:01～03:00,0.125,0.110,0.117,
江戸川 (Edogawa),2012-06-18,01:01～02:00,0.126,0.111,0.117,
江戸川 (Edogawa),2012-06-18,00:01～01:00,0.122,0.109,0.117,
